SCOUT A R/B, 2180

Orbit data source: Space-Track

SCOUT A R/B, 2180 is space debris in LEO originally from a launch on Thu, 19 May 1966 UTC launched from the Air Force Western Test Range (AFWTR). Debris objects in space refer to the collection of defunct objects orbiting the Earth. Examples of debris include non-operational satellites, rocket bodies, and fragments generated from explosions, collisions, or faulty payload assembly.

Loading next visibility...
Identifier
2180, 1966-041B
Orbit
LEO
Country
Flag of USUS
Related business
Manufacturer
ABL
Mission
Spacecraft
Bus & Motor
ALTAIR, Unknown motor
Mass
33 kg wet, 33 kg dry
Launch date (UTC)
1966-05-19 (59 years ago)
Launch vehicle
Unknown
Launch site
Air Force Western Test Range (AFWTR)
Object type
Payload
Rocket body
Debris
Shape & HBR
Unknown
Radar Cross Section
Medium (>0.1 m² and <1 m²)

Expand to show TLE details & history
Last TLE update: 21 hours ago

TLE from 21 hours ago
0 SCOUT A R/B
1  2180U 66041B   25306.38658365  .00000240  00000-0  15038-3 0  9994
2  2180  90.2242  76.9664 0076798 317.8273  41.7013 14.01008366 31513
Epoch: 2025-11-02T09:16Z
TLE epoch observation values (Epoch: 2025-11-02T09:16:40.827Z)
Latitude
-0.00006°
Longitude
-104.10676°
Altitude
851.839 km
Speed
7.448 km/s
True Right ascension
05h 07m 51s
True Declination
0° 00' 00"
Sunlit
Object was in full shadow at epoch
Visualization orbit readout
Latitude
Unknown
Longitude
Unknown
Altitude
Unknown
Speed
Unknown
Apparent Right ascension
Unknown
Apparent Declination
Unknown
Sunlit
N/A
Visualization observer readout
Local Sidereal Time
02:17:01
Azimuth
Unknown
Elevation
Unknown
Doppler factor
Unknown
Orbital elements
Apogee altitude
943.078 km
Perigee altitude
831.484 km
Semi-major axis
7,265.418 km
Eccentricity
0.00768
Inclination
90.2242°
RAAN
76.9664°
Arg. of periapsis
317.8273°
True anomaly
42.29096°
Mean anomaly
41.7013°
Eccentric anomaly
41.99571°
Mean motion
3.50471 °/min
Orbital period
102.72 mins
BSTAR
0.00015038
Loading maneuver chart data...
Computing Atmospheric mass density...
Loading historical data...
Loading historical data...
Loading historical data...
Loading historical data...
Loading historical data...
Loading historical data...
Loading historical data...

Documentation

Showing up to 5 results
|